Burnet, TX

8:30 AM CDT on September 21, 2017 (GMT -0500)
Burnet Municipal-Craddock

Weather History for KBMQ - September, 2013

Change the Weather History Date:

Wednesday, September 4, 2013

  Actual Average Record
Temperature  
Mean Temperature 85 °F -  
Max Temperature 99 °F 89 °F 107 °F (2000)
Min Temperature 73 °F 68 °F 66 °F (2001)
Cooling Degree Days 20    
Growing Degree Days 35 (Base 50)    
Moisture  
Dew Point 66 °F    
Average Humidity 54    
Maximum Humidity 87    
Minimum Humidity 32    
Precipitation  
Precipitation 0.00 in - - ()
Sea Level Pressure  
Sea Level Pressure 29.99 in    
Wind  
Wind Speed 6 mph (SSW)    
Max Wind Speed 23 mph    
Max Gust Speed 31 mph    
Visibility 10 miles    
Events Rain , Thunderstorm    
Averages and records for this station are not official NWS values.
T = Trace of Precipitation, MM = Missing Value Source: NWS Daily Summary

Daily Weather History Graph

Daily Weather History Graph

Search for Another Location

Airport or City:

Trip Planner

Search our weather history database for the weather conditions in past years. The results will help you decide how hot, cold, wet, or windy it might be!

Date:

Astronomy

Sep. 04, 2013 Rise Set
Actual Time 7:11 AM CDT 7:51 PM CDT
Civil Twilight 6:46 AM CDT 8:16 PM CDT
Nautical Twilight 6:18 AM CDT 8:45 PM CDT
Astronomical Twilight 5:48 AM CDT 9:14 PM CDT
Moon 6:24 AM CDT (9/4) 7:14 PM CDT (9/4)
Length of Visible Light 13h 29m
Length of Day
12h 40m
Waning Crescent, 1% of the Moon is Illuminated
Sep 4
Waning Crescent
Sep 5
New
Sep 12
First Quarter
Sep 19
Full
Sep 26
Last Quarter

Hourly Weather History & Observations

Time (CDT) Temp. Heat Index Dew Point Humidity Pressure Visibility Wind Dir Wind Speed Gust Speed Precip Events Conditions
12:53 AM 84.9 °F 86.1 °F 64.0 °F 49% 29.93 in 10.0 mi SSE 3.5 mph - N/A   Mostly Cloudy
1:53 AM 81.0 °F 83.0 °F 66.0 °F 60% 29.94 in 10.0 mi Calm Calm - N/A   Clear
2:53 AM 80.1 °F 81.9 °F 64.9 °F 60% 29.94 in 10.0 mi South 3.5 mph - N/A   Clear
3:53 AM 78.1 °F - 64.9 °F 64% 29.95 in 10.0 mi South 3.5 mph - N/A   Clear
4:53 AM 81.0 °F 82.7 °F 64.9 °F 58% 29.97 in 10.0 mi South 6.9 mph - N/A   Overcast
5:53 AM 75.0 °F - 70.0 °F 84% 29.99 in 10.0 mi South 6.9 mph - 0.00 in Rain Light Rain
6:53 AM 73.9 °F - 70.0 °F 87% 30.00 in 10.0 mi SW 5.8 mph - 0.00 in   Clear
7:53 AM 75.9 °F - 69.1 °F 79% 30.01 in 10.0 mi SSW 4.6 mph - N/A   Clear
8:53 AM 75.9 °F - 69.1 °F 79% 30.02 in 10.0 mi Calm Calm - N/A   Clear
9:53 AM 80.1 °F 82.9 °F 69.1 °F 69% 30.04 in 10.0 mi SW 4.6 mph - N/A   Clear
10:53 AM 84.0 °F 87.0 °F 68.0 °F 58% 30.04 in 10.0 mi WSW 5.8 mph - N/A   Clear
11:53 AM 87.1 °F 90.6 °F 68.0 °F 53% 30.04 in 10.0 mi West 8.1 mph - N/A   Clear
12:53 PM 91.0 °F 93.8 °F 66.0 °F 44% 30.02 in 10.0 mi SSW 3.5 mph - N/A   Clear
1:53 PM 93.9 °F 96.1 °F 64.9 °F 38% 30.00 in 9.0 mi South 8.1 mph 18.4 mph N/A   Partly Cloudy
2:53 PM 95.0 °F 97.4 °F 64.9 °F 37% 29.98 in 10.0 mi Variable 3.5 mph - N/A   Clear
3:53 PM 97.0 °F 99.3 °F 64.0 °F 34% 29.94 in 10.0 mi Variable 3.5 mph - N/A   Clear
4:00 PM 96.1 °F 98.3 °F 64.0 °F 35% 30.00 in 10.0 mi North - - N/A Thunderstorm Partly Cloudy
4:33 PM 90.0 °F 90.6 °F 63.0 °F 40% 30.01 in 10.0 mi NNW 23.0 mph 31.1 mph N/A   Scattered Clouds
4:41 PM 88.0 °F 88.7 °F 63.0 °F 43% 30.02 in 10.0 mi NNW 18.4 mph 31.1 mph N/A Thunderstorm Scattered Clouds
4:48 PM 87.8 °F 89.4 °F 64.4 °F 46% 30.02 in 10.0 mi NNW 19.6 mph 31.1 mph N/A Thunderstorm Thunderstorm
4:53 PM 87.1 °F 88.9 °F 64.9 °F 48% 29.96 in 10.0 mi North 13.8 mph 31.1 mph N/A Thunderstorm Thunderstorm
5:03 PM 91.0 °F 91.9 °F 63.0 °F 39% 30.01 in 10.0 mi North 17.3 mph 26.5 mph N/A   Scattered Clouds
5:53 PM 93.9 °F 93.6 °F 60.1 °F 32% 29.93 in 10.0 mi NNE 3.5 mph - 0.00 in   Clear
6:53 PM 89.1 °F 91.0 °F 64.9 °F 45% 29.96 in 10.0 mi South 9.2 mph - N/A   Mostly Cloudy
7:53 PM 84.9 °F 86.6 °F 64.9 °F 51% 29.96 in 10.0 mi SSW 4.6 mph - N/A   Clear
8:53 PM 84.0 °F 85.8 °F 64.9 °F 53% 29.99 in 10.0 mi NW 4.6 mph - N/A   Clear
9:53 PM 82.0 °F 84.1 °F 66.0 °F 58% 30.02 in 10.0 mi SSE 5.8 mph - N/A   Partly Cloudy
10:53 PM 81.0 °F 83.3 °F 66.9 °F 62% 30.05 in 10.0 mi East 4.6 mph - N/A   Scattered Clouds
11:53 PM 80.1 °F 82.3 °F 66.9 °F 64% 30.04 in 10.0 mi ESE 6.9 mph - N/A   Clear